Starlink 31292

operational
NORAD ID: 59081 Int'l Des: 2024-041 Owner: SPXS Country: US Constellation: starlink
LEOCIRCULAR

关于 Starlink 31292

正在加载描述...

实时位置

正在加载3D地球...

即将过境

高度历史

Altitude vs Time

uPlot chart will show altitude changes over time

两行轨道根数

1 59081U 24041H 25303.49924224 -.00000376 00000-0 -41700-5 0 9998
2 59081 43.0006 325.6900 0000131 264.3077 95.7759 15.27571237 94350
Epoch: Oct 30, 2025 • Age: 25 hours

当前状态

高度 483.9 km
速度 7.63 km/s
星下点 31.12°N, 120.16°E
发射日期 Feb 29, 2024
运行时间 1.6 years
类型 internet

技术详情

分类 Payload
质量 730.00 kg
干质量 700.00 kg
总质量 730.00 kg
长度 0.30 m
直径 4.10 m
跨度 29.00 m
形状 Box + pan
制造商 SPXS
平台类型 Starlink V2M
阶段状态 In Orbit
所有者/国家 SPXS/US

大型星座

Loading constellations...